SPACEBEE-46 (47426 NORAD) Tracking and Keplerian Element Data

This shows tracking and keplerian element data for the satellite.

Feedback or suggestion? Click here.




ElementValue
Catalog47426
NameSPACEBEE-46
Epoch Orbit1295
Epoch Day101.86010051
Epoch Year2021
RAAN164.4264
Inclination97.4973
Eccentricity0.0013525
Argument of Perigee337.8163
Mean Anonmoly22.2482
Mean Motion15.14296615
Decay Rate2.535E-05
L11 47426U 21006P 21101.86010051 .00002535 00000-0 14184-3 0 9994
L22 47426 97.4973 164.4264 0013525 337.8163 22.2482 15.14296615 12955

Live tracking and technical data element details for SPACEBEE-46 (NORAD 47426). SPACEBEE-46 can be tracked NOW for your location showing map with azimuth and elevation plus other details from your city location.

Track the satellite on the map from your city or location and see movement details for azimuth, elevation, latitude, longitude, range, height, and movement on the map or in text.







IsCatalogInMostPopularTable: catalog: 47426, numindb: 16
Update: records affected: 1



GetName: 47426 SPACEBEE-46

Hit Count: updated at: Tue, 13 Apr 2021 03:43:56 GMT